{"data":{"norad_id":53424,"epoch":"2026-05-25T05:33:32.737824Z","epoch_age_seconds":48326,"freshness":"FRESH","line1":"1 53424U 22097AN  26145.23162891  .00002796  00000+0  19372-3 0  9996","line2":"2 53424  53.2140 130.5105 0001507  86.5991 273.5173 15.08831131210205","mean_motion":15.08831131,"eccentricity":0.0001507,"inclination_deg":53.214,"raan_deg":130.5105,"arg_perigee_deg":86.5991,"mean_anomaly_deg":273.5173,"bstar":0.00019372,"rev_number":21020,"period_min":95.438115665444,"perigee_km":538.72796942184,"apogee_km":540.81302674176,"semimajor_km":6917.9074980818,"source":"CELESTRAK","updated_at":"2026-05-25T13:38:17.404380Z"}}